TimePST,TemperatureF,Dew PointF,Humidity,Sea Level PressureIn,VisibilityMPH,Wind Direction,Wind SpeedMPH,Gust SpeedMPH,PrecipitationIn,Events,Conditions,WindDirDegrees,DateUTC
12:00 AM,40.3,-9999,N/A,30.26,-9999.0,West,8.1,-,N/A,,Unknown,270,2012-11-25 08:00:00
1:00 AM,40.6,-9999,N/A,30.26,-9999.0,West,6.9,-,N/A,,Unknown,280,2012-11-25 09:00:00
2:00 AM,41.0,-9999,N/A,30.27,-9999.0,WNW,10.4,-,N/A,,Unknown,290,2012-11-25 10:00:00
3:00 AM,41.9,-9999,N/A,30.27,-9999.0,West,12.7,-,N/A,,Unknown,260,2012-11-25 11:00:00
4:00 AM,44,,,30.28,,WNW,10.4,,,,,290,2012-11-25 12:00:00
4:00 AM,43.5,-9999,N/A,30.28,-9999.0,WNW,10.4,-,N/A,,Unknown,290,2012-11-25 12:00:00
5:00 AM,43.5,-9999,N/A,30.27,-9999.0,WNW,15.0,-,N/A,,Unknown,290,2012-11-25 13:00:00
6:00 AM,43.2,-9999,N/A,30.28,-9999.0,WNW,11.5,-,N/A,,Unknown,290,2012-11-25 14:00:00
7:00 AM,42.6,-9999,N/A,30.29,-9999.0,North,8.1,-,N/A,,Unknown,350,2012-11-25 15:00:00
8:00 AM,41.5,-9999,N/A,30.31,-9999.0,NNE,6.9,-,N/A,,Unknown,20,2012-11-25 16:00:00
9:00 AM,41.2,-9999,N/A,30.33,-9999.0,NNE,5.8,-,N/A,,Unknown,30,2012-11-25 17:00:00
10:00 AM,41,,,30.35,,NNE,4.6,,,,,30,2012-11-25 18:00:00
10:00 AM,41.4,-9999,N/A,30.35,-9999.0,NNE,4.6,-,N/A,,Unknown,30,2012-11-25 18:00:00
11:00 AM,41.7,-9999,N/A,30.35,-9999.0,NE,3.5,-,N/A,,Unknown,40,2012-11-25 19:00:00
12:00 PM,41.7,-9999,N/A,30.35,-9999.0,North,1.2,-,N/A,,Unknown,10,2012-11-25 20:00:00
1:00 PM,43.5,-9999,N/A,30.34,-9999.0,NW,2.3,-,0.01,,Unknown,310,2012-11-25 21:00:00
2:00 PM,43.3,-9999,N/A,30.34,-9999.0,WNW,3.5,-,N/A,,Unknown,300,2012-11-25 22:00:00
3:00 PM,43.0,-9999,N/A,30.34,-9999.0,NW,3.5,-,N/A,,Unknown,310,2012-11-25 23:00:00
4:00 PM,43,,,30.32,,NW,3.5,,,,,310,2012-11-26 00:00:00
4:00 PM,43.0,-9999,N/A,30.32,-9999.0,NW,3.5,-,N/A,,Unknown,310,2012-11-26 00:00:00
5:00 PM,43.2,-9999,N/A,30.32,-9999.0,NW,6.9,-,N/A,,Unknown,320,2012-11-26 01:00:00
6:00 PM,43.2,-9999,N/A,30.30,-9999.0,NW,9.2,-,N/A,,Unknown,320,2012-11-26 02:00:00
7:00 PM,40.8,-9999,N/A,30.30,-9999.0,West,8.1,-,N/A,,Unknown,280,2012-11-26 03:00:00
8:00 PM,40.8,-9999,N/A,30.30,-9999.0,West,9.2,-,N/A,,Unknown,280,2012-11-26 04:00:00
9:00 PM,42.4,-9999,N/A,30.29,-9999.0,WNW,10.4,-,N/A,,Unknown,300,2012-11-26 05:00:00
10:00 PM,42,,,30.28,,NW,10.4,,,,,310,2012-11-26 06:00:00
10:00 PM,42.1,-9999,N/A,30.28,-9999.0,NW,10.4,-,N/A,,Unknown,310,2012-11-26 06:00:00
11:00 PM,41.7,-9999,N/A,30.27,-9999.0,NW,10.4,-,N/A,,Unknown,310,2012-11-26 07:00:00